GFSFLT1_prec_precacc6_198.txt.gz
Total_Precipitation_Accumulation
0.00 0.00 0.00 0.00 0.00 0.00 0.00 0.00 0.00 0.00 0.00 0.00 0.00 0.00 0.00 0.00 0.00 0.00 0.00 0.00 0.00 0.00 0.00 0.00 0.00 0.00 0.00 0.00 0.00 0.00 0.00 0.00
0.00 0.00 0.00 0.00 0.00 0.00 0.00 0.00 0.01 0.01 0.02 0.00 0.00 0.00 0.00 0.00 0.00 0.00 0.00 0.00 0.00 0.00 0.00 0.00 0.00 0.00 0.00 0.00 0.00 0.00 0.00 0.00
0.00 0.00 0.00 0.00 0.00 0.00 0.00 0.00 0.01 0.02 0.05 0.05 0.03 0.01 0.00 0.00 0.00 0.00 0.00 0.00 0.00 0.00 0.00 0.00 0.00 0.00 0.00 0.00 0.00 0.00 0.00 0.00
0.00 0.00 0.00 0.00 0.00 0.00 0.00 0.00 0.02 0.06 0.07 0.04 0.04 0.01 0.01 0.00 0.01 0.00 0.00 0.00 0.00 0.00 0.00 0.00 0.00 0.00 0.00 0.00 0.00 0.00 0.00 0.00
0.00 0.00 0.00 0.00 0.00 0.00 0.00 0.00 0.02 0.03 0.04 0.03 0.04 0.03 0.02 0.02 0.01 0.00 0.00 0.00 0.00 0.00 0.00 0.00 0.00 0.00 0.00 0.00 0.00 0.00 0.00 0.00
0.00 0.00 0.00 0.00 0.00 0.00 0.00 0.00 0.00 0.01 0.05 0.06 0.05 0.04 0.02 0.01 0.01 0.00 0.00 0.00 0.00 0.00 0.00 0.00 0.00 0.00 0.00 0.00 0.00 0.00 0.00 0.00
0.00 0.00 0.00 0.00 0.00 0.00 0.00 0.01 0.01 0.03 0.07 0.09 0.09 0.08 0.05 0.02 0.01 0.01 0.00 0.00 0.00 0.00 0.00 0.00 0.00 0.00 0.00 0.00 0.00 0.00 0.00 0.00
0.00 0.00 0.00 0.00 0.00 0.00 0.00 0.00 0.01 0.04 0.06 0.07 0.08 0.09 0.07 0.05 0.02 0.01 0.00 0.00 0.00 0.00 0.00 0.00 0.00 0.00 0.00 0.00 0.00 0.00 0.00 0.00
0.00 0.00 0.00 0.00 0.00 0.00 0.00 0.00 0.00 0.01 0.02 0.02 0.03 0.03 0.04 0.03 0.02 0.01 0.00 0.00 0.00 0.00 0.00 0.00 0.00 0.00 0.00 0.00 0.00 0.00 0.00 0.00
0.00 0.00 0.00 0.00 0.00 0.00 0.00 0.00 0.01 0.03 0.04 0.04 0.05 0.06 0.05 0.02 0.01 0.00 0.00 0.00 0.00 0.00 0.00 0.00 0.00 0.00 0.00 0.00 0.00 0.00 0.00 0.00
0.00 0.00 0.00 0.00 0.00 0.00 0.00 0.01 0.06 0.11 0.11 0.09 0.07 0.05 0.07 0.06 0.02 0.00 0.00 0.00 0.00 0.00 0.00 0.00 0.00 0.00 0.00 0.00 0.00 0.00 0.00 0.00
0.00 0.00 0.00 0.00 0.00 0.00 0.01 0.04 0.12 0.19 0.23 0.28 0.25 0.18 0.12 0.10 0.08 0.01 0.00 0.00 0.00 0.00 0.00 0.00 0.00 0.00 0.00 0.00 0.00 0.00 0.00 0.00
0.00 0.00 0.00 0.00 0.00 0.01 0.03 0.13 0.18 0.16 0.20 0.22 0.24 0.30 0.28 0.21 0.15 0.06 0.01 0.01 0.01 0.00 0.00 0.00 0.00 0.00 0.00 0.00 0.00 0.00 0.00 0.00
0.01 0.01 0.01 0.00 0.00 0.04 0.07 0.14 0.16 0.17 0.12 0.13 0.21 0.23 0.23 0.24 0.24 0.21 0.07 0.02 0.01 0.00 0.00 0.00 0.00 0.00 0.00 0.00 0.00 0.00 0.00 0.00
0.00 0.00 0.00 0.00 0.04 0.17 0.26 0.23 0.25 0.24 0.25 0.23 0.16 0.16 0.19 0.20 0.20 0.18 0.12 0.05 0.02 0.01 0.00 0.00 0.00 0.00 0.00 0.00 0.00 0.00 0.00 0.00
0.01 0.01 0.01 0.01 0.03 0.15 0.45 0.46 0.39 0.51 0.54 0.42 0.31 0.20 0.14 0.17 0.18 0.10 0.03 0.01 0.00 0.00 0.00 0.00 0.00 0.00 0.00 0.00 0.00 0.00 0.00 0.00
0.00 0.00 0.01 0.06 0.04 0.11 0.30 0.47 0.48 0.54 0.56 0.49 0.38 0.24 0.13 0.08 0.07 0.04 0.01 0.00 0.00 0.00 0.00 0.00 0.00 0.00 0.00 0.00 0.00 0.00 0.00 0.00
0.02 0.02 0.01 0.02 0.03 0.06 0.22 0.37 0.38 0.65 0.53 0.38 0.21 0.15 0.07 0.03 0.01 0.00 0.00 0.01 0.00 0.00 0.00 0.00 0.00 0.00 0.00 0.00 0.00 0.00 0.00 0.00
0.06 0.08 0.08 0.06 0.00 0.01 0.13 0.35 0.40 0.40 0.34 0.43 0.20 0.06 0.01 0.00 0.00 0.00 0.01 0.02 0.02 0.03 0.02 0.03 0.05 0.04 0.03 0.02 0.02 0.00 0.00 0.00

GFSFLT1_prec_precacc6_201.txt.gz
Total_Precipitation_Accumulation
0.00 0.00 0.00 0.00 0.00 0.00 0.00 0.00 0.00 0.01 0.01 0.01 0.00 0.00 0.00 0.00 0.00 0.00 0.00 0.00 0.00 0.00 0.00 0.00 0.00 0.00 0.00 0.00 0.00 0.00 0.00 0.00
0.00 0.00 0.00 0.00 0.00 0.00 0.00 0.00 0.00 0.01 0.03 0.03 0.01 0.00 0.00 0.00 0.00 0.00 0.00 0.00 0.00 0.00 0.00 0.00 0.00 0.00 0.00 0.00 0.00 0.00 0.00 0.00
0.00 0.00 0.00 0.00 0.00 0.00 0.00 0.00 0.00 0.00 0.02 0.08 0.05 0.02 0.01 0.00 0.00 0.00 0.00 0.00 0.00 0.00 0.00 0.00 0.00 0.00 0.00 0.00 0.00 0.00 0.00 0.00
0.00 0.00 0.00 0.00 0.00 0.00 0.00 0.00 0.00 0.00 0.02 0.05 0.04 0.02 0.01 0.00 0.00 0.00 0.00 0.01 0.00 0.00 0.00 0.00 0.00 0.00 0.00 0.00 0.00 0.00 0.00 0.00
0.00 0.00 0.00 0.00 0.00 0.00 0.00 0.00 0.00 0.00 0.01 0.02 0.04 0.03 0.03 0.03 0.01 0.00 0.00 0.00 0.00 0.00 0.00 0.00 0.00 0.00 0.00 0.00 0.00 0.00 0.00 0.00
0.00 0.00 0.00 0.00 0.00 0.00 0.00 0.00 0.00 0.00 0.01 0.03 0.04 0.04 0.04 0.04 0.01 0.01 0.00 0.00 0.00 0.00 0.00 0.00 0.00 0.00 0.00 0.00 0.00 0.00 0.00 0.00
0.00 0.00 0.00 0.00 0.00 0.00 0.00 0.00 0.00 0.00 0.00 0.03 0.07 0.08 0.06 0.05 0.03 0.02 0.01 0.00 0.00 0.00 0.00 0.00 0.00 0.00 0.00 0.00 0.00 0.00 0.00 0.00
0.00 0.00 0.00 0.00 0.00 0.00 0.00 0.00 0.00 0.00 0.00 0.02 0.04 0.07 0.09 0.08 0.09 0.06 0.02 0.01 0.00 0.00 0.00 0.00 0.00 0.00 0.00 0.00 0.00 0.00 0.00 0.00
0.00 0.00 0.00 0.00 0.00 0.00 0.00 0.00 0.00 0.00 0.00 0.00 0.01 0.04 0.07 0.08 0.07 0.08 0.06 0.03 0.01 0.00 0.00 0.00 0.00 0.00 0.00 0.00 0.00 0.00 0.00 0.00
0.00 0.00 0.00 0.00 0.00 0.00 0.00 0.00 0.00 0.00 0.00 0.00 0.02 0.05 0.08 0.06 0.08 0.08 0.06 0.03 0.01 0.00 0.00 0.00 0.00 0.00 0.00 0.00 0.00 0.00 0.00 0.00
0.00 0.00 0.00 0.00 0.00 0.00 0.00 0.00 0.00 0.00 0.00 0.01 0.03 0.04 0.09 0.10 0.10 0.09 0.08 0.06 0.02 0.00 0.00 0.00 0.00 0.00 0.00 0.00 0.00 0.00 0.00 0.00
0.00 0.00 0.00 0.00 0.00 0.00 0.01 0.01 0.00 0.00 0.00 0.02 0.07 0.09 0.11 0.11 0.13 0.11 0.10 0.05 0.03 0.01 0.01 0.00 0.00 0.00 0.00 0.00 0.00 0.00 0.00 0.00
0.00 0.00 0.00 0.00 0.00 0.00 0.00 0.01 0.01 0.01 0.02 0.05 0.11 0.20 0.22 0.26 0.22 0.15 0.10 0.06 0.04 0.01 0.00 0.00 0.00 0.00 0.00 0.00 0.00 0.00 0.00 0.00
0.01 0.01 0.01 0.01 0.00 0.00 0.01 0.05 0.09 0.06 0.06 0.08 0.15 0.20 0.24 0.30 0.33 0.34 0.16 0.07 0.04 0.02 0.02 0.02 0.01 0.00 0.00 0.00 0.00 0.00 0.00 0.00
0.00 0.00 0.00 0.00 0.02 0.02 0.04 0.03 0.04 0.13 0.19 0.24 0.20 0.23 0.29 0.29 0.29 0.30 0.27 0.20 0.08 0.05 0.05 0.04 0.04 0.03 0.02 0.01 0.00 0.00 0.00 0.00
0.00 0.00 0.00 0.02 0.05 0.12 0.10 0.08 0.12 0.28 0.39 0.42 0.40 0.32 0.28 0.33 0.36 0.28 0.20 0.20 0.17 0.14 0.10 0.06 0.04 0.04 0.02 0.00 0.00 0.00 0.00 0.00
0.00 0.02 0.08 0.13 0.13 0.14 0.07 0.07 0.29 0.38 0.45 0.53 0.52 0.48 0.43 0.37 0.33 0.29 0.19 0.18 0.17 0.14 0.13 0.08 0.04 0.01 0.00 0.00 0.00 0.00 0.00 0.00
0.03 0.05 0.04 0.03 0.05 0.04 0.07 0.09 0.17 0.48 0.51 0.43 0.39 0.42 0.46 0.40 0.32 0.27 0.19 0.13 0.08 0.06 0.05 0.03 0.01 0.00 0.00 0.00 0.00 0.00 0.00 0.00
0.04 0.05 0.04 0.05 0.01 0.02 0.04 0.16 0.29 0.32 0.41 0.41 0.40 0.37 0.36 0.32 0.30 0.18 0.10 0.06 0.04 0.03 0.02 0.01 0.00 0.01 0.01 0.01 0.01 0.00 0.00 0.00

GFSFLT1_prec_precacc6_207.txt.gz
Total_Precipitation_Accumulation
0.00 0.00 0.00 0.00 0.00 0.00 0.00 0.02 0.02 0.01 0.04 0.06 0.07 0.11 0.12 0.15 0.08 0.05 0.02 0.01 0.02 0.01 0.01 0.00 0.01 0.00 0.00 0.00 0.00 0.00 0.00 0.00
0.00 0.00 0.00 0.00 0.00 0.00 0.00 0.01 0.01 0.02 0.06 0.07 0.09 0.09 0.08 0.09 0.07 0.05 0.07 0.02 0.00 0.00 0.00 0.01 0.00 0.00 0.00 0.00 0.00 0.00 0.00 0.00
0.00 0.00 0.00 0.00 0.00 0.00 0.00 0.02 0.04 0.05 0.06 0.04 0.08 0.12 0.15 0.21 0.22 0.14 0.13 0.07 0.01 0.00 0.00 0.00 0.00 0.00 0.00 0.00 0.00 0.00 0.00 0.00
0.00 0.00 0.00 0.00 0.00 0.02 0.04 0.04 0.09 0.06 0.05 0.02 0.05 0.23 0.30 0.23 0.19 0.13 0.10 0.08 0.04 0.01 0.01 0.01 0.00 0.00 0.00 0.00 0.00 0.00 0.00 0.00
0.00 0.00 0.00 0.00 0.00 0.07 0.13 0.08 0.04 0.02 0.00 0.01 0.02 0.05 0.08 0.09 0.11 0.12 0.13 0.11 0.07 0.02 0.00 0.01 0.01 0.00 0.00 0.00 0.00 0.00 0.00 0.00
0.00 0.00 0.00 0.00 0.00 0.00 0.04 0.10 0.04 0.01 0.02 0.01 0.00 0.00 0.02 0.03 0.07 0.12 0.13 0.16 0.14 0.09 0.03 0.02 0.01 0.00 0.01 0.00 0.00 0.00 0.00 0.00
0.00 0.00 0.00 0.00 0.00 0.00 0.00 0.01 0.04 0.01 0.00 0.01 0.01 0.00 0.00 0.02 0.04 0.04 0.06 0.08 0.12 0.14 0.09 0.04 0.04 0.00 0.00 0.01 0.00 0.00 0.00 0.00
0.00 0.00 0.00 0.00 0.00 0.00 0.00 0.00 0.01 0.02 0.00 0.00 0.01 0.00 0.01 0.02 0.01 0.02 0.03 0.04 0.04 0.09 0.11 0.07 0.06 0.02 0.01 0.01 0.00 0.00 0.00 0.00
0.00 0.00 0.00 0.00 0.00 0.00 0.00 0.00 0.00 0.00 0.00 0.00 0.00 0.00 0.01 0.02 0.02 0.02 0.03 0.05 0.06 0.06 0.07 0.06 0.05 0.04 0.02 0.01 0.00 0.00 0.00 0.00
0.00 0.00 0.00 0.00 0.00 0.00 0.00 0.00 0.00 0.00 0.00 0.00 0.00 0.00 0.00 0.01 0.03 0.05 0.06 0.07 0.08 0.08 0.08 0.05 0.04 0.04 0.02 0.01 0.00 0.00 0.00 0.00
0.00 0.00 0.00 0.00 0.00 0.00 0.00 0.00 0.00 0.01 0.00 0.00 0.00 0.00 0.00 0.01 0.03 0.05 0.07 0.09 0.12 0.10 0.11 0.09 0.05 0.04 0.03 0.02 0.00 0.00 0.00 0.00
0.00 0.00 0.00 0.00 0.00 0.00 0.00 0.01 0.02 0.01 0.02 0.02 0.04 0.05 0.05 0.05 0.05 0.06 0.12 0.15 0.16 0.15 0.11 0.11 0.11 0.12 0.11 0.07 0.03 0.01 0.00 0.00
0.00 0.00 0.00 0.00 0.00 0.01 0.00 0.00 0.03 0.08 0.17 0.24 0.21 0.11 0.05 0.04 0.04 0.05 0.10 0.13 0.18 0.16 0.12 0.15 0.19 0.16 0.17 0.21 0.21 0.16 0.09 0.04
0.00 0.00 0.03 0.04 0.05 0.01 0.00 0.01 0.15 0.25 0.22 0.22 0.15 0.09 0.05 0.03 0.03 0.03 0.09 0.22 0.27 0.22 0.17 0.16 0.15 0.17 0.17 0.16 0.18 0.16 0.13 0.08
0.01 0.06 0.04 0.01 0.00 0.00 0.01 0.06 0.14 0.07 0.06 0.06 0.04 0.02 0.02 0.03 0.04 0.04 0.06 0.16 0.25 0.27 0.24 0.22 0.23 0.18 0.13 0.18 0.22 0.22 0.21 0.15
0.13 0.17 0.02 0.01 0.01 0.02 0.10 0.18 0.19 0.15 0.08 0.02 0.00 0.01 0.03 0.07 0.11 0.10 0.12 0.13 0.19 0.28 0.29 0.20 0.20 0.23 0.24 0.21 0.16 0.15 0.17 0.15
0.06 0.01 0.03 0.02 0.00 0.00 0.03 0.03 0.02 0.02 0.02 0.01 0.01 0.03 0.06 0.13 0.21 0.25 0.21 0.21 0.16 0.16 0.27 0.30 0.27 0.25 0.24 0.25 0.23 0.18 0.12 0.06
0.05 0.03 0.04 0.03 0.00 0.00 0.00 0.01 0.00 0.00 0.00 0.00 0.01 0.03 0.06 0.13 0.23 0.34 0.40 0.35 0.30 0.31 0.27 0.25 0.28 0.23 0.17 0.16 0.17 0.19 0.15 0.11
0.05 0.05 0.02 0.00 0.00 0.00 0.00 0.00 0.00 0.00 0.01 0.03 0.06 0.06 0.12 0.17 0.26 0.32 0.39 0.42 0.36 0.34 0.35 0.27 0.20 0.17 0.15 0.11 0.09 0.14 0.16 0.14

GFSFLT1_prec_precacc6_210.txt.gz
Total_Precipitation_Accumulation
0.00 0.00 0.00 0.00 0.00 0.00 0.00 0.02 0.02 0.09 0.16 0.14 0.16 0.19 0.22 0.30 0.38 0.40 0.31 0.26 0.27 0.11 0.08 0.07 0.05 0.02 0.01 0.00 0.00 0.01 0.00 0.00
0.00 0.00 0.00 0.00 0.00 0.00 0.00 0.00 0.03 0.17 0.13 0.10 0.10 0.10 0.12 0.26 0.26 0.36 0.33 0.17 0.14 0.07 0.04 0.07 0.04 0.02 0.01 0.00 0.00 0.00 0.00 0.00
0.00 0.00 0.00 0.00 0.00 0.00 0.00 0.05 0.14 0.20 0.14 0.09 0.06 0.10 0.17 0.36 0.52 0.52 0.46 0.38 0.23 0.11 0.02 0.03 0.05 0.04 0.02 0.00 0.00 0.00 0.00 0.00
0.00 0.00 0.00 0.00 0.00 0.03 0.05 0.12 0.19 0.13 0.10 0.04 0.04 0.18 0.28 0.31 0.36 0.41 0.44 0.43 0.40 0.29 0.14 0.06 0.03 0.02 0.02 0.01 0.01 0.01 0.01 0.00
0.00 0.00 0.00 0.00 0.00 0.08 0.13 0.09 0.10 0.08 0.07 0.07 0.03 0.03 0.07 0.11 0.17 0.25 0.29 0.40 0.62 0.63 0.26 0.14 0.06 0.03 0.02 0.01 0.00 0.00 0.00 0.00
0.00 0.00 0.00 0.00 0.00 0.00 0.03 0.04 0.03 0.03 0.11 0.12 0.07 0.04 0.02 0.05 0.09 0.16 0.27 0.36 0.39 0.50 0.40 0.22 0.10 0.03 0.04 0.02 0.01 0.00 0.01 0.01
0.00 0.00 0.00 0.00 0.00 0.00 0.00 0.00 0.01 0.01 0.03 0.12 0.18 0.18 0.09 0.01 0.02 0.02 0.05 0.12 0.27 0.46 0.47 0.36 0.35 0.08 0.03 0.02 0.01 0.00 0.00 0.00
0.00 0.00 0.00 0.00 0.00 0.00 0.00 0.00 0.00 0.01 0.00 0.01 0.07 0.13 0.15 0.12 0.03 0.00 0.00 0.01 0.04 0.15 0.32 0.33 0.37 0.30 0.07 0.04 0.02 0.01 0.01 0.00
0.00 0.00 0.00 0.00 0.00 0.00 0.00 0.00 0.00 0.00 0.00 0.00 0.00 0.00 0.01 0.02 0.02 0.01 0.00 0.00 0.00 0.01 0.05 0.09 0.16 0.33 0.31 0.14 0.03 0.01 0.01 0.01
0.00 0.00 0.00 0.00 0.00 0.00 0.00 0.00 0.00 0.00 0.00 0.00 0.00 0.00 0.00 0.00 0.00 0.01 0.01 0.01 0.00 0.01 0.02 0.03 0.04 0.07 0.13 0.13 0.05 0.02 0.01 0.01
0.00 0.00 0.00 0.00 0.00 0.00 0.00 0.00 0.00 0.00 0.00 0.00 0.00 0.00 0.01 0.01 0.01 0.01 0.01 0.01 0.01 0.02 0.03 0.05 0.05 0.05 0.08 0.08 0.06 0.05 0.04 0.02
0.00 0.00 0.00 0.00 0.00 0.00 0.00 0.00 0.00 0.00 0.00 0.00 0.03 0.05 0.07 0.07 0.04 0.02 0.02 0.03 0.05 0.07 0.06 0.07 0.10 0.12 0.16 0.17 0.10 0.05 0.04 0.06
0.00 0.00 0.00 0.00 0.00 0.01 0.00 0.00 0.00 0.00 0.04 0.08 0.11 0.09 0.06 0.06 0.03 0.02 0.02 0.03 0.07 0.08 0.08 0.11 0.15 0.17 0.21 0.27 0.28 0.21 0.16 0.15
0.00 0.00 0.01 0.02 0.04 0.01 0.00 0.01 0.01 0.02 0.06 0.06 0.05 0.05 0.03 0.02 0.01 0.01 0.01 0.04 0.09 0.12 0.12 0.14 0.16 0.16 0.18 0.21 0.23 0.20 0.21 0.24
0.00 0.01 0.03 0.01 0.00 0.00 0.00 0.01 0.02 0.02 0.02 0.02 0.02 0.01 0.01 0.00 0.00 0.01 0.01 0.03 0.07 0.12 0.16 0.17 0.22 0.23 0.19 0.24 0.29 0.31 0.30 0.26
0.04 0.15 0.03 0.01 0.01 0.00 0.00 0.00 0.00 0.05 0.08 0.02 0.00 0.00 0.00 0.00 0.01 0.02 0.02 0.04 0.04 0.07 0.13 0.15 0.16 0.25 0.30 0.27 0.25 0.24 0.28 0.28
0.05 0.04 0.03 0.03 0.02 0.01 0.00 0.00 0.01 0.00 0.00 0.00 0.00 0.00 0.01 0.02 0.04 0.11 0.11 0.11 0.10 0.09 0.11 0.16 0.21 0.24 0.23 0.25 0.24 0.20 0.17 0.16
0.16 0.25 0.21 0.06 0.04 0.03 0.00 0.00 0.00 0.00 0.00 0.00 0.00 0.01 0.01 0.05 0.08 0.16 0.21 0.21 0.21 0.22 0.19 0.17 0.23 0.21 0.22 0.23 0.19 0.19 0.21 0.16
0.13 0.06 0.02 0.01 0.00 0.00 0.00 0.00 0.00 0.00 0.00 0.00 0.01 0.01 0.05 0.09 0.12 0.15 0.18 0.22 0.26 0.28 0.34 0.28 0.19 0.22 0.24 0.20 0.23 0.23 0.24 0.21

GFSFLT1_prec_precacc6_216.txt.gz
Total_Precipitation_Accumulation
0.00 0.00 0.00 0.00 0.00 0.00 0.00 0.00 0.00 0.02 0.03 0.08 0.17 0.16 0.16 0.10 0.09 0.18 0.28 0.37 0.46 0.85 1.12 0.98 1.10 1.11 0.86 0.59 0.24 0.06 0.00 0.00
0.00 0.00 0.00 0.00 0.00 0.00 0.00 0.00 0.01 0.06 0.12 0.15 0.23 0.22 0.23 0.20 0.12 0.15 0.23 0.27 0.29 0.49 0.80 1.17 1.41 1.24 1.29 1.20 0.76 0.40 0.14 0.03
0.00 0.00 0.00 0.00 0.00 0.00 0.00 0.01 0.04 0.10 0.17 0.18 0.21 0.22 0.18 0.12 0.15 0.11 0.18 0.22 0.30 0.31 0.45 0.53 0.51 0.69 0.64 0.50 0.52 0.57 0.45 0.20
0.00 0.00 0.00 0.00 0.00 0.00 0.01 0.03 0.08 0.14 0.19 0.23 0.20 0.22 0.15 0.14 0.13 0.11 0.12 0.21 0.28 0.27 0.38 0.54 0.54 0.45 0.35 0.38 0.40 0.39 0.33 0.25
0.00 0.00 0.00 0.00 0.00 0.00 0.00 0.01 0.03 0.05 0.09 0.16 0.18 0.18 0.11 0.06 0.04 0.04 0.03 0.12 0.28 0.53 0.88 0.95 1.04 1.12 0.94 0.66 0.49 0.46 0.45 0.40
0.00 0.00 0.00 0.00 0.00 0.00 0.00 0.00 0.00 0.00 0.01 0.02 0.04 0.07 0.07 0.03 0.03 0.02 0.03 0.10 0.28 0.49 0.74 0.89 1.07 1.15 1.00 0.96 0.78 0.67 0.58 0.41
0.00 0.00 0.00 0.00 0.00 0.00 0.00 0.00 0.00 0.00 0.00 0.00 0.01 0.02 0.04 0.03 0.03 0.04 0.04 0.05 0.11 0.25 0.42 0.60 0.62 0.83 0.93 0.79 0.52 0.43 0.46 0.50
0.00 0.00 0.00 0.00 0.00 0.00 0.00 0.00 0.00 0.00 0.00 0.00 0.00 0.00 0.01 0.03 0.11 0.17 0.14 0.09 0.04 0.02 0.07 0.23 0.43 0.53 0.66 0.68 0.69 0.60 0.48 0.37
0.00 0.00 0.00 0.00 0.00 0.00 0.00 0.00 0.00 0.00 0.00 0.00 0.00 0.00 0.01 0.01 0.01 0.04 0.10 0.13 0.11 0.06 0.02 0.01 0.07 0.22 0.47 0.70 0.69 0.62 0.63 0.49
0.00 0.00 0.00 0.00 0.00 0.00 0.00 0.00 0.00 0.00 0.00 0.00 0.00 0.00 0.00 0.00 0.00 0.00 0.00 0.00 0.00 0.00 0.02 0.01 0.00 0.02 0.08 0.23 0.49 0.54 0.53 0.62
0.00 0.00 0.00 0.00 0.00 0.00 0.00 0.00 0.00 0.00 0.00 0.00 0.00 0.00 0.00 0.00 0.00 0.00 0.00 0.00 0.02 0.03 0.05 0.05 0.04 0.02 0.02 0.04 0.08 0.12 0.14 0.23
0.01 0.01 0.00 0.00 0.00 0.00 0.00 0.00 0.00 0.00 0.00 0.00 0.00 0.00 0.00 0.00 0.00 0.00 0.01 0.02 0.04 0.05 0.06 0.06 0.06 0.07 0.08 0.06 0.04 0.06 0.06 0.09
0.00 0.00 0.00 0.00 0.00 0.00 0.00 0.00 0.00 0.00 0.00 0.00 0.00 0.00 0.00 0.00 0.00 0.00 0.01 0.02 0.04 0.06 0.06 0.06 0.07 0.05 0.05 0.04 0.02 0.03 0.02 0.02
0.00 0.00 0.00 0.00 0.00 0.00 0.00 0.00 0.00 0.00 0.00 0.00 0.00 0.00 0.00 0.00 0.00 0.00 0.00 0.00 0.01 0.02 0.04 0.05 0.04 0.04 0.03 0.03 0.04 0.06 0.03 0.01
0.00 0.00 0.00 0.00 0.00 0.00 0.00 0.00 0.00 0.00 0.00 0.00 0.00 0.00 0.00 0.00 0.00 0.00 0.00 0.00 0.00 0.00 0.01 0.04 0.07 0.05 0.02 0.03 0.05 0.05 0.07 0.04
0.00 0.01 0.00 0.01 0.01 0.02 0.03 0.02 0.01 0.00 0.00 0.00 0.00 0.00 0.00 0.00 0.00 0.00 0.00 0.00 0.00 0.00 0.00 0.01 0.03 0.09 0.11 0.07 0.04 0.09 0.10 0.09
0.06 0.08 0.09 0.11 0.13 0.06 0.01 0.01 0.01 0.01 0.00 0.00 0.00 0.00 0.00 0.00 0.00 0.00 0.00 0.00 0.00 0.00 0.00 0.01 0.01 0.03 0.14 0.12 0.11 0.09 0.14 0.21
0.21 0.29 0.27 0.22 0.20 0.09 0.02 0.01 0.00 0.01 0.00 0.00 0.00 0.00 0.00 0.00 0.00 0.00 0.00 0.00 0.00 0.00 0.01 0.01 0.01 0.01 0.09 0.12 0.15 0.18 0.19 0.17
0.22 0.15 0.06 0.06 0.03 0.01 0.00 0.01 0.01 0.00 0.00 0.00 0.00 0.00 0.00 0.00 0.00 0.00 0.02 0.04 0.05 0.05 0.05 0.04 0.04 0.04 0.09 0.07 0.21 0.27 0.25 0.27

GFSFLT1_prec_precacc6_219.txt.gz
Total_Precipitation_Accumulation
0.00 0.00 0.00 0.00 0.00 0.00 0.00 0.00 0.01 0.03 0.02 0.05 0.06 0.10 0.15 0.15 0.13 0.21 0.29 0.31 0.24 0.39 0.63 0.70 0.95 1.16 1.23 1.06 1.03 0.96 0.73 0.49
0.00 0.00 0.00 0.00 0.00 0.00 0.00 0.00 0.02 0.07 0.08 0.09 0.13 0.14 0.20 0.26 0.22 0.26 0.23 0.23 0.27 0.24 0.17 0.27 0.81 1.11 1.33 1.26 0.97 0.83 0.80 0.64
0.00 0.00 0.00 0.00 0.00 0.00 0.00 0.00 0.02 0.06 0.11 0.17 0.24 0.22 0.24 0.24 0.27 0.17 0.13 0.12 0.17 0.16 0.14 0.13 0.27 0.54 0.55 0.51 0.55 0.66 0.76 0.68
0.00 0.00 0.00 0.00 0.00 0.00 0.00 0.00 0.01 0.04 0.10 0.17 0.21 0.29 0.26 0.24 0.23 0.21 0.14 0.14 0.18 0.17 0.14 0.17 0.29 0.30 0.25 0.35 0.43 0.44 0.43 0.53
0.00 0.00 0.00 0.00 0.00 0.00 0.00 0.00 0.00 0.00 0.02 0.07 0.10 0.15 0.11 0.08 0.09 0.09 0.08 0.10 0.13 0.12 0.16 0.19 0.19 0.37 0.61 0.66 0.60 0.59 0.57 0.62
0.00 0.00 0.00 0.00 0.00 0.00 0.00 0.00 0.00 0.00 0.00 0.00 0.00 0.01 0.02 0.02 0.04 0.05 0.04 0.05 0.08 0.16 0.16 0.21 0.34 0.50 0.66 1.01 1.03 1.00 0.88 0.77
0.00 0.00 0.00 0.00 0.00 0.00 0.00 0.00 0.00 0.00 0.00 0.00 0.00 0.00 0.01 0.01 0.02 0.03 0.03 0.04 0.03 0.10 0.22 0.23 0.21 0.27 0.31 0.34 0.50 0.58 0.60 0.65
0.00 0.00 0.00 0.00 0.00 0.00 0.00 0.00 0.00 0.00 0.00 0.00 0.00 0.00 0.00 0.00 0.00 0.01 0.02 0.05 0.04 0.02 0.05 0.12 0.15 0.13 0.17 0.21 0.25 0.36 0.45 0.39
0.00 0.00 0.00 0.00 0.00 0.00 0.00 0.00 0.00 0.00 0.00 0.00 0.00 0.01 0.01 0.01 0.01 0.01 0.01 0.01 0.01 0.02 0.03 0.02 0.02 0.06 0.13 0.14 0.16 0.17 0.37 0.40
0.00 0.00 0.00 0.00 0.00 0.00 0.00 0.00 0.00 0.00 0.00 0.00 0.00 0.00 0.00 0.00 0.00 0.00 0.00 0.01 0.01 0.01 0.04 0.04 0.04 0.04 0.06 0.10 0.19 0.19 0.25 0.35
0.00 0.00 0.00 0.00 0.00 0.00 0.01 0.00 0.00 0.00 0.00 0.00 0.00 0.00 0.00 0.00 0.00 0.00 0.00 0.00 0.02 0.04 0.06 0.06 0.06 0.09 0.10 0.12 0.13 0.14 0.14 0.18
0.01 0.01 0.00 0.00 0.00 0.00 0.00 0.00 0.00 0.00 0.00 0.00 0.00 0.00 0.00 0.00 0.00 0.00 0.00 0.01 0.03 0.04 0.07 0.09 0.09 0.11 0.13 0.15 0.15 0.14 0.11 0.08
0.00 0.00 0.00 0.00 0.00 0.00 0.00 0.00 0.00 0.00 0.00 0.00 0.00 0.00 0.00 0.00 0.00 0.00 0.00 0.01 0.02 0.04 0.05 0.07 0.09 0.08 0.09 0.08 0.08 0.10 0.08 0.04
0.00 0.00 0.00 0.00 0.00 0.00 0.00 0.00 0.01 0.01 0.01 0.00 0.00 0.00 0.00 0.00 0.00 0.00 0.00 0.00 0.00 0.00 0.03 0.05 0.07 0.07 0.08 0.08 0.08 0.07 0.05 0.03
0.00 0.00 0.00 0.00 0.00 0.00 0.01 0.03 0.05 0.03 0.04 0.02 0.00 0.00 0.00 0.00 0.00 0.00 0.00 0.00 0.00 0.00 0.00 0.02 0.06 0.09 0.06 0.06 0.08 0.10 0.15 0.12
0.00 0.00 0.00 0.01 0.01 0.04 0.08 0.04 0.05 0.05 0.06 0.02 0.00 0.00 0.00 0.00 0.00 0.00 0.00 0.00 0.00 0.00 0.00 0.00 0.02 0.07 0.11 0.10 0.06 0.04 0.04 0.06
0.00 0.01 0.06 0.14 0.22 0.32 0.15 0.02 0.02 0.03 0.03 0.01 0.00 0.00 0.00 0.00 0.00 0.00 0.00 0.00 0.00 0.00 0.00 0.00 0.00 0.01 0.06 0.10 0.13 0.11 0.06 0.07
0.00 0.05 0.13 0.16 0.32 0.36 0.32 0.14 0.02 0.04 0.01 0.00 0.00 0.00 0.00 0.00 0.00 0.00 0.00 0.00 0.00 0.00 0.01 0.00 0.00 0.01 0.04 0.03 0.08 0.15 0.17 0.16
0.01 0.03 0.04 0.09 0.23 0.15 0.18 0.17 0.06 0.02 0.00 0.00 0.00 0.00 0.00 0.00 0.00 0.00 0.00 0.00 0.00 0.00 0.00 0.00 0.00 0.02 0.04 0.01 0.01 0.07 0.18 0.20

GFSFLT1_prec_precacc6_222.txt.gz
Total_Precipitation_Accumulation
0.00 0.00 0.00 0.00 0.00 0.00 0.00 0.00 0.01 0.02 0.05 0.07 0.06 0.06 0.08 0.13 0.18 0.26 0.21 0.15 0.15 0.21 0.27 0.27 0.24 0.29 0.61 0.65 0.84 0.95 0.91 0.83
0.00 0.00 0.00 0.00 0.00 0.00 0.00 0.00 0.01 0.04 0.08 0.10 0.13 0.11 0.10 0.16 0.20 0.27 0.27 0.21 0.20 0.20 0.20 0.17 0.13 0.12 0.14 0.15 0.25 0.45 0.69 0.69
0.00 0.00 0.00 0.00 0.00 0.00 0.00 0.00 0.00 0.02 0.06 0.11 0.15 0.15 0.21 0.23 0.25 0.26 0.24 0.16 0.11 0.11 0.14 0.10 0.06 0.05 0.06 0.06 0.06 0.10 0.33 0.52
0.00 0.00 0.00 0.00 0.00 0.00 0.00 0.00 0.00 0.00 0.01 0.05 0.09 0.13 0.18 0.21 0.25 0.31 0.32 0.30 0.23 0.22 0.24 0.14 0.07 0.04 0.04 0.05 0.06 0.06 0.11 0.30
0.00 0.00 0.00 0.00 0.00 0.00 0.00 0.00 0.00 0.00 0.00 0.00 0.01 0.04 0.05 0.07 0.09 0.13 0.16 0.21 0.30 0.27 0.27 0.20 0.11 0.06 0.06 0.10 0.17 0.15 0.16 0.27
0.00 0.00 0.00 0.00 0.00 0.00 0.00 0.00 0.00 0.00 0.00 0.00 0.00 0.01 0.01 0.01 0.02 0.05 0.08 0.09 0.12 0.18 0.30 0.43 0.31 0.28 0.29 0.23 0.33 0.39 0.33 0.39
0.00 0.00 0.00 0.00 0.00 0.00 0.00 0.00 0.00 0.00 0.00 0.00 0.00 0.00 0.00 0.01 0.03 0.03 0.03 0.03 0.06 0.11 0.23 0.37 0.50 0.42 0.40 0.23 0.19 0.22 0.15 0.18
0.00 0.00 0.00 0.00 0.00 0.00 0.00 0.00 0.00 0.00 0.00 0.00 0.00 0.00 0.00 0.00 0.00 0.01 0.02 0.02 0.04 0.06 0.10 0.17 0.25 0.32 0.40 0.41 0.28 0.17 0.05 0.06
0.00 0.00 0.00 0.00 0.00 0.00 0.00 0.00 0.00 0.00 0.00 0.00 0.00 0.00 0.00 0.00 0.01 0.01 0.01 0.01 0.01 0.02 0.04 0.09 0.09 0.11 0.18 0.29 0.39 0.31 0.11 0.03
0.00 0.00 0.00 0.00 0.00 0.00 0.00 0.00 0.00 0.00 0.00 0.00 0.00 0.00 0.00 0.00 0.00 0.00 0.01 0.01 0.02 0.03 0.04 0.05 0.06 0.09 0.12 0.13 0.12 0.17 0.27 0.24
0.00 0.00 0.00 0.00 0.00 0.00 0.00 0.00 0.00 0.00 0.00 0.00 0.00 0.00 0.00 0.00 0.00 0.00 0.00 0.00 0.01 0.03 0.04 0.04 0.06 0.10 0.15 0.17 0.15 0.10 0.11 0.19
0.00 0.00 0.00 0.00 0.00 0.00 0.00 0.00 0.00 0.00 0.00 0.00 0.01 0.01 0.00 0.00 0.00 0.00 0.00 0.00 0.01 0.02 0.04 0.06 0.06 0.06 0.09 0.14 0.18 0.16 0.14 0.09
0.00 0.00 0.00 0.00 0.00 0.00 0.00 0.00 0.00 0.00 0.00 0.01 0.03 0.01 0.00 0.00 0.00 0.00 0.00 0.00 0.00 0.01 0.02 0.03 0.05 0.09 0.09 0.09 0.12 0.12 0.09 0.05
0.00 0.00 0.00 0.00 0.00 0.00 0.00 0.00 0.01 0.03 0.09 0.09 0.03 0.00 0.00 0.00 0.00 0.00 0.00 0.00 0.00 0.00 0.00 0.02 0.03 0.05 0.08 0.10 0.10 0.10 0.07 0.06
0.00 0.00 0.00 0.00 0.00 0.00 0.02 0.05 0.08 0.14 0.19 0.14 0.06 0.00 0.00 0.00 0.00 0.00 0.00 0.00 0.00 0.00 0.00 0.00 0.01 0.04 0.05 0.06 0.09 0.14 0.18 0.15
0.00 0.00 0.00 0.00 0.01 0.03 0.12 0.11 0.07 0.09 0.13 0.10 0.04 0.00 0.00 0.00 0.00 0.00 0.00 0.00 0.00 0.00 0.00 0.00 0.00 0.00 0.02 0.05 0.05 0.06 0.09 0.14
0.00 0.00 0.00 0.03 0.13 0.32 0.39 0.16 0.11 0.05 0.06 0.08 0.05 0.00 0.00 0.00 0.00 0.00 0.00 0.00 0.00 0.00 0.00 0.00 0.00 0.00 0.01 0.03 0.08 0.11 0.08 0.06
0.00 0.00 0.00 0.04 0.17 0.37 0.58 0.47 0.27 0.18 0.10 0.03 0.00 0.00 0.00 0.00 0.00 0.00 0.00 0.00 0.00 0.00 0.00 0.00 0.00 0.00 0.02 0.00 0.04 0.09 0.17 0.21
0.01 0.00 0.00 0.03 0.22 0.23 0.44 0.68 0.54 0.33 0.07 0.00 0.00 0.00 0.00 0.00 0.00 0.00 0.00 0.00 0.00 0.00 0.00 0.00 0.00 0.01 0.02 0.00 0.00 0.03 0.12 0.16